Time,TemperatureF,DewpointF,PressureIn,WindDirection,WindDirectionDegrees,WindSpeedMPH,WindSpeedGustMPH,Humidity,HourlyPrecipIn,Conditions,Clouds,dailyrainin,SoftwareType,DateUTC
2013-02-19 00:09:00,17.0,-3.0,30.16,NW,304,0.0,6.0,42,0.00,,,0.00,weatherlink.com 1.10,2013-02-19 05:09:00,
2013-02-19 00:24:00,16.8,-2.0,30.16,West,273,3.0,6.0,43,0.00,,,0.00,weatherlink.com 1.10,2013-02-19 05:24:00,
2013-02-19 00:40:00,17.3,-2.0,30.16,WSW,249,2.0,8.0,42,0.00,,,0.00,weatherlink.com 1.10,2013-02-19 05:40:00,
2013-02-19 00:54:00,17.5,-2.0,30.16,NW,323,2.0,6.0,42,0.00,,,0.00,weatherlink.com 1.10,2013-02-19 05:54:00,
2013-02-19 01:09:00,17.4,-2.0,30.18,West,280,1.0,6.0,43,0.00,,,0.00,weatherlink.com 1.10,2013-02-19 06:09:00,
2013-02-19 01:24:00,16.7,-1.0,30.18,WSW,238,0.0,1.0,45,0.00,,,0.00,weatherlink.com 1.10,2013-02-19 06:24:00,
2013-02-19 01:40:00,16.6,-1.0,30.18,WNW,295,0.0,3.0,46,0.00,,,0.00,weatherlink.com 1.10,2013-02-19 06:40:00,
2013-02-19 01:55:00,17.3,-1.0,30.18,West,266,6.0,6.0,45,0.00,,,0.00,weatherlink.com 1.10,2013-02-19 06:55:00,
2013-02-19 02:10:00,17.9,-1.0,30.19,SSE,166,0.0,5.0,44,0.00,,,0.00,weatherlink.com 1.10,2013-02-19 07:10:00,
2013-02-19 02:25:00,17.2,-1.0,30.19,SSE,158,0.0,2.0,45,0.00,,,0.00,weatherlink.com 1.10,2013-02-19 07:25:00,
2013-02-19 02:40:00,17.4,-2.0,30.19,East,96,0.0,1.0,43,0.00,,,0.00,weatherlink.com 1.10,2013-02-19 07:40:00,
2013-02-19 02:55:00,17.6,-2.0,30.19,East,97,0.0,1.0,43,0.00,,,0.00,weatherlink.com 1.10,2013-02-19 07:55:00,
2013-02-19 03:10:00,17.7,-1.0,30.19,West,264,1.0,1.0,43,0.00,,,0.00,weatherlink.com 1.10,2013-02-19 08:10:00,
2013-02-19 03:25:00,17.2,-1.0,30.19,West,263,0.0,1.0,45,0.00,,,0.00,weatherlink.com 1.10,2013-02-19 08:25:00,
2013-02-19 03:40:00,16.6,-1.0,30.19,West,263,1.0,1.0,46,0.00,,,0.00,weatherlink.com 1.10,2013-02-19 08:40:00,
2013-02-19 03:55:00,17.1,-1.0,30.18,West,263,0.0,1.0,46,0.00,,,0.00,weatherlink.com 1.10,2013-02-19 08:55:00,
2013-02-19 04:10:00,17.6,0.0,30.18,West,263,0.0,1.0,46,0.00,,,0.00,weatherlink.com 1.10,2013-02-19 09:10:00,
2013-02-19 04:25:00,18.2,-2.0,30.17,West,263,0.0,1.0,41,0.00,,,0.00,weatherlink.com 1.10,2013-02-19 09:25:00,
2013-02-19 04:40:00,19.2,3.0,30.16,ENE,73,0.0,1.0,49,0.00,,,0.00,weatherlink.com 1.10,2013-02-19 09:40:00,
2013-02-19 04:56:00,19.7,0.0,30.16,East,79,0.0,1.0,42,0.00,,,0.00,weatherlink.com 1.10,2013-02-19 09:56:00,
2013-02-19 05:11:00,21.1,-2.0,30.15,East,80,0.0,1.0,37,0.00,,,0.00,weatherlink.com 1.10,2013-02-19 10:11:00,
2013-02-19 05:26:00,21.5,-3.0,30.15,East,80,0.0,1.0,34,0.00,,,0.00,weatherlink.com 1.10,2013-02-19 10:26:00,
2013-02-19 05:41:00,21.3,0.0,30.14,East,88,2.0,2.0,40,0.00,,,0.00,weatherlink.com 1.10,2013-02-19 10:41:00,
2013-02-19 05:56:00,18.9,1.0,30.14,WSW,238,0.0,1.0,46,0.00,,,0.00,weatherlink.com 1.10,2013-02-19 10:56:00,
2013-02-19 06:11:00,17.2,0.0,30.13,South,183,0.0,1.0,47,0.00,,,0.00,weatherlink.com 1.10,2013-02-19 11:11:00,
2013-02-19 06:26:00,16.5,-1.0,30.13,South,183,0.0,1.0,46,0.00,,,0.00,weatherlink.com 1.10,2013-02-19 11:26:00,
2013-02-19 06:41:00,16.0,-1.0,30.14,South,181,0.0,1.0,48,0.00,,,0.00,weatherlink.com 1.10,2013-02-19 11:41:00,
2013-02-19 06:56:00,16.0,-1.0,30.13,SSE,158,0.0,1.0,48,0.00,,,0.00,weatherlink.com 1.10,2013-02-19 11:56:00,
2013-02-19 07:11:00,16.1,2.0,30.12,SW,229,0.0,1.0,54,0.00,,,0.00,weatherlink.com 1.10,2013-02-19 12:11:00,
2013-02-19 07:27:00,16.1,0.0,30.12,WNW,284,0.0,3.0,49,0.00,,,0.00,weatherlink.com 1.10,2013-02-19 12:27:00,
2013-02-19 07:41:00,15.9,1.0,30.12,WNW,284,0.0,1.0,51,0.00,,,0.00,weatherlink.com 1.10,2013-02-19 12:41:00,
2013-02-19 07:56:00,16.8,1.0,30.11,WNW,284,0.0,1.0,50,0.00,,,0.00,weatherlink.com 1.10,2013-02-19 12:56:00,
2013-02-19 08:11:00,18.7,-1.0,30.10,SSE,152,0.0,1.0,42,0.00,,,0.00,weatherlink.com 1.10,2013-02-19 13:11:00,
2013-02-19 08:26:00,20.1,0.0,30.09,WSW,255,1.0,1.0,42,0.00,,,0.00,weatherlink.com 1.10,2013-02-19 13:26:00,
2013-02-19 08:42:00,20.2,3.0,30.10,SSW,208,1.0,1.0,47,0.00,,,0.00,weatherlink.com 1.10,2013-02-19 13:42:00,
2013-02-19 08:57:00,21.3,2.0,30.10,SSW,208,0.0,1.0,44,0.00,,,0.00,weatherlink.com 1.10,2013-02-19 13:57:00,
2013-02-19 09:12:00,23.7,3.0,30.09,WSW,256,0.0,2.0,41,0.00,,,0.00,weatherlink.com 1.10,2013-02-19 14:12:00,
2013-02-19 09:27:00,24.5,4.0,30.09,West,269,0.0,1.0,41,0.00,,,0.00,weatherlink.com 1.10,2013-02-19 14:27:00,
2013-02-19 09:42:00,26.1,5.0,30.09,WNW,291,2.0,2.0,41,0.00,,,0.00,weatherlink.com 1.10,2013-02-19 14:42:00,
2013-02-19 09:57:00,26.5,6.0,30.09,West,278,1.0,2.0,41,0.00,,,0.00,weatherlink.com 1.10,2013-02-19 14:57:00,
2013-02-19 10:12:00,28.2,7.0,30.07,East,83,1.0,3.0,41,0.00,,,0.00,weatherlink.com 1.10,2013-02-19 15:12:00,
2013-02-19 10:27:00,29.8,8.0,30.06,NNW,346,2.0,4.0,40,0.00,,,0.00,weatherlink.com 1.10,2013-02-19 15:27:00,
2013-02-19 10:42:00,30.6,9.0,30.06,ESE,103,2.0,4.0,41,0.00,,,0.00,weatherlink.com 1.10,2013-02-19 15:42:00,
2013-02-19 10:57:00,31.6,11.0,30.05,East,82,2.0,5.0,42,0.00,,,0.00,weatherlink.com 1.10,2013-02-19 15:57:00,
2013-02-19 11:13:00,32.9,12.0,30.06,West,275,1.0,7.0,43,0.00,,,0.00,weatherlink.com 1.10,2013-02-19 16:13:00,
2013-02-19 11:27:00,34.5,13.0,30.04,SW,221,1.0,10.0,42,0.00,,,0.00,weatherlink.com 1.10,2013-02-19 16:27:00,
2013-02-19 11:42:00,35.7,14.0,30.03,SSE,155,1.0,9.0,41,0.00,,,0.00,weatherlink.com 1.10,2013-02-19 16:42:00,
2013-02-19 11:58:00,36.8,16.0,30.01,NNE,30,2.0,7.0,42,0.00,,,0.00,weatherlink.com 1.10,2013-02-19 16:58:00,
2013-02-19 12:13:00,36.4,16.0,30.01,SSW,193,4.0,7.0,44,0.00,,,0.00,weatherlink.com 1.10,2013-02-19 17:13:00,
2013-02-19 12:28:00,36.2,15.0,30.00,WNW,295,1.0,7.0,42,0.00,,,0.00,weatherlink.com 1.10,2013-02-19 17:28:00,
2013-02-19 12:43:00,37.1,16.0,29.98,East,86,2.0,5.0,42,0.00,,,0.00,weatherlink.com 1.10,2013-02-19 17:43:00,
2013-02-19 12:58:00,37.6,16.0,29.97,SSE,156,3.0,5.0,41,0.00,,,0.00,weatherlink.com 1.10,2013-02-19 17:58:00,
2013-02-19 13:13:00,36.3,15.0,29.95,North,352,0.0,3.0,42,0.00,,,0.00,weatherlink.com 1.10,2013-02-19 18:13:00,
2013-02-19 13:28:00,35.7,16.0,29.94,NNW,340,1.0,5.0,44,0.00,,,0.00,weatherlink.com 1.10,2013-02-19 18:28:00,
2013-02-19 13:43:00,34.8,15.0,29.95,SSW,207,1.0,7.0,44,0.00,,,0.00,weatherlink.com 1.10,2013-02-19 18:43:00,
2013-02-19 13:58:00,33.9,13.0,29.94,ESE,116,1.0,3.0,43,0.00,,,0.00,weatherlink.com 1.10,2013-02-19 18:58:00,
2013-02-19 14:13:00,33.6,15.0,29.93,West,274,0.0,4.0,46,0.00,,,0.00,weatherlink.com 1.10,2013-02-19 19:13:00,
2013-02-19 14:28:00,33.6,15.0,29.93,SE,142,2.0,4.0,47,0.00,,,0.00,weatherlink.com 1.10,2013-02-19 19:28:00,
2013-02-19 14:43:00,33.8,16.0,29.92,ENE,70,1.0,5.0,49,0.00,,,0.00,weatherlink.com 1.10,2013-02-19 19:43:00,
2013-02-19 14:59:00,34.0,17.0,29.90,North,358,0.0,6.0,51,0.00,,,0.00,weatherlink.com 1.10,2013-02-19 19:59:00,
2013-02-19 15:14:00,34.3,18.0,29.89,NW,307,2.0,5.0,52,0.00,,,0.00,weatherlink.com 1.10,2013-02-19 20:14:00,
2013-02-19 15:29:00,34.5,20.0,29.86,NW,311,4.0,4.0,55,0.00,,,0.00,weatherlink.com 1.10,2013-02-19 20:29:00,
2013-02-19 15:44:00,34.4,21.0,29.86,WSW,253,2.0,5.0,59,0.00,,,0.00,weatherlink.com 1.10,2013-02-19 20:44:00,
2013-02-19 15:59:00,34.6,23.0,29.85,SSE,161,2.0,5.0,63,0.00,,,0.00,weatherlink.com 1.10,2013-02-19 20:59:00,
2013-02-19 16:14:00,34.4,24.0,29.84,West,264,5.0,6.0,67,0.00,,,0.00,weatherlink.com 1.10,2013-02-19 21:14:00,
2013-02-19 16:29:00,34.2,25.0,29.84,South,169,5.0,6.0,69,0.00,,,0.00,weatherlink.com 1.10,2013-02-19 21:29:00,
2013-02-19 16:45:00,33.7,26.0,29.84,West,260,2.0,6.0,73,0.00,,,0.00,weatherlink.com 1.10,2013-02-19 21:45:00,
2013-02-19 16:59:00,33.4,27.0,29.82,NE,51,1.0,5.0,77,0.00,,,0.00,weatherlink.com 1.10,2013-02-19 21:59:00,
2013-02-19 17:14:00,33.3,27.0,29.82,SSE,153,2.0,5.0,79,0.00,,,0.00,weatherlink.com 1.10,2013-02-19 22:14:00,
2013-02-19 17:29:00,33.3,28.0,29.81,ESE,104,0.0,5.0,80,0.00,,,0.00,weatherlink.com 1.10,2013-02-19 22:29:00,
2013-02-19 17:45:00,33.5,29.0,29.80,ENE,75,4.0,5.0,82,0.00,,,0.00,weatherlink.com 1.10,2013-02-19 22:45:00,
2013-02-19 18:00:00,33.8,29.0,29.80,WSW,245,0.0,5.0,82,0.00,,,0.00,weatherlink.com 1.10,2013-02-19 23:00:00,
2013-02-19 18:14:00,33.6,30.0,29.80,South,186,0.0,4.0,85,0.00,,,0.00,weatherlink.com 1.10,2013-02-19 23:14:00,
2013-02-19 18:30:00,33.0,30.0,29.78,SSW,211,1.0,2.0,89,0.00,,,0.00,weatherlink.com 1.10,2013-02-19 23:30:00,
2013-02-19 18:45:00,32.3,30.0,29.77,East,88,1.0,249.0,90,0.00,,,0.00,weatherlink.com 1.10,2013-02-19 23:45:00,
2013-02-19 19:00:00,32.1,30.0,29.76,East,90,2.0,108.0,92,0.00,,,0.00,weatherlink.com 1.10,2013-02-20 00:00:00,
2013-02-19 19:15:00,32.0,30.0,29.75,ESE,107,2.0,3.0,93,0.00,,,0.00,weatherlink.com 1.10,2013-02-20 00:15:00,
2013-02-19 19:30:00,32.1,30.0,29.75,ENE,77,1.0,3.0,93,0.00,,,0.00,weatherlink.com 1.10,2013-02-20 00:30:00,
2013-02-19 19:45:00,32.3,31.0,29.74,East,100,2.0,3.0,94,0.00,,,0.00,weatherlink.com 1.10,2013-02-20 00:45:00,
2013-02-19 20:00:00,32.4,31.0,29.73,ESE,102,0.0,3.0,94,0.00,,,0.00,weatherlink.com 1.10,2013-02-20 01:00:00,
2013-02-19 20:15:00,32.7,32.0,29.71,ESE,109,2.0,4.0,95,0.00,,,0.00,weatherlink.com 1.10,2013-02-20 01:15:00,
2013-02-19 20:30:00,33.3,32.0,29.69,East,89,1.0,4.0,95,0.00,,,0.00,weatherlink.com 1.10,2013-02-20 01:30:00,
2013-02-19 20:45:00,33.1,32.0,29.69,East,86,0.0,4.0,96,0.00,,,0.00,weatherlink.com 1.10,2013-02-20 01:45:00,
2013-02-19 21:01:00,33.2,32.0,29.68,East,94,1.0,2.0,96,0.00,,,0.00,weatherlink.com 1.10,2013-02-20 02:01:00,
2013-02-19 21:15:00,33.2,32.0,29.68,East,84,2.0,4.0,96,0.00,,,0.00,weatherlink.com 1.10,2013-02-20 02:15:00,
2013-02-19 21:30:00,33.0,32.0,29.66,East,86,2.0,2.0,96,0.00,,,0.00,weatherlink.com 1.10,2013-02-20 02:30:00,
2013-02-19 21:45:00,33.0,32.0,29.65,East,89,0.0,2.0,97,0.00,,,0.00,weatherlink.com 1.10,2013-02-20 02:45:00,
2013-02-19 22:01:00,33.0,32.0,29.64,SSE,156,0.0,1.0,97,0.01,,,0.01,weatherlink.com 1.10,2013-02-20 03:01:00,
2013-02-19 22:16:00,32.8,32.0,29.65,SSW,212,0.0,1.0,97,0.02,,,0.02,weatherlink.com 1.10,2013-02-20 03:16:00,
2013-02-19 22:31:00,32.6,32.0,29.64,WSW,256,1.0,1.0,97,0.04,,,0.04,weatherlink.com 1.10,2013-02-20 03:31:00,
2013-02-19 22:46:00,32.4,32.0,29.64,WSW,256,0.0,0.0,97,0.04,,,0.04,weatherlink.com 1.10,2013-02-20 03:46:00,
2013-02-19 23:01:00,32.7,32.0,29.62,East,84,0.0,2.0,97,0.03,,,0.04,weatherlink.com 1.10,2013-02-20 04:01:00,
2013-02-19 23:16:00,32.8,32.0,29.61,WNW,287,0.0,7.0,97,0.02,,,0.04,weatherlink.com 1.10,2013-02-20 04:16:00,
2013-02-19 23:31:00,32.7,32.0,29.61,West,278,1.0,2.0,97,0.00,,,0.04,weatherlink.com 1.10,2013-02-20 04:31:00,
2013-02-19 23:46:00,33.1,32.0,29.59,WSW,252,3.0,6.0,97,0.00,,,0.04,weatherlink.com 1.10,2013-02-20 04:46:00,